SCP
0 0 0 0 0 0 0 0 0 0 0 0 0 0 0 0 0 0 0 0 0 0 0 0 0 0 0 0 0 0 0 0 0 0 0 0 0 0
0 0 0 0 0 0 0 0 0 0 0 0 0 0 0 0 0 0 0 0 -0 0 0 0 0 0 0 0 0 0 0 0 0 0 -0 -0 0 0
0 0 0 0 0 0 0 0 0 0 0 0 0 0 0 0 0 0 0 0 0 0 0 0 0 0 0 0 0 0 0 0 0 0 0 0 -0 0
0 0 0 0 0 0 0 0 0 0 0 0 0 0 0 0 0 0 0 0 0 0 0 0 0 0 0 0 0 0 0 0 0 0 0 0 0 0
0 0 0 0 0 0 0 0 0 0 0 0 0 0 0 0 0 0 0 0 0 0 0 0 0 0 0 0 0 0 0 0 0 0 0 0 0 0
0 0 0 0 0 0 0 0 0 0 0 0 0 0 0 0 0 0 0 0 0 0 0 0 0 0 0 0 0 0 0 0 0 0 0 0 0 0
0 0 0 0 0 0 0 0 0 0 0 0 0 0 0 0 0 0 0 0 0 0 0 0 0 0 0 0 0 0 0 0 0 0 0 0 0 0
0 0 0 0 0 0 0 0 0 0 0 0 0 0 0 0 0 0 0 0 0 0 0 0 0 0 0 0 0 0 0 0 0 0 0 0 0 0
0 0 0 0 0 0 0 0 0 0 0 0 0 0 0 0 0 0 0 0 0 0 0 0 0 0 0 0 0 0 0 0 0 0 0 0 0 0
0 0 0 0 0 0 0 0 0 0 0 0 0 0 0 0 0 0 0 0 0 0 0 0 0 0 0 0 0 0 0 0 0 0 0 0 0 0
0 0 0 0 0 0 0 0 0 0 0 0 0 0 0 0 0 0 0 0 0 0 0 0 0 0 0 0 0 0 0 0 0 0 0 0 0 0
0 0 0 0 0 0 0 0 0 0 0 0 0 0 0 0 0 0 0 0 0 0 0 0 0 0 0 0 0 0 0 0 0 0 0 0 0 0
0 0 0 0 0 0 0 0 0 0 0 0 0 0 0 0 0 0 0 0 0 0 0 0 0 0 0 0 0 0 0 0 0 0 0 0 0 0
0 0 0 0 0 0 0 0 0 0 0 0 0 0 0 0 0 0 0 0 0 0 0 0 0 0 0 0 0 0 0 0 0 0 0 0 0 0
0 0 0 0 0 0 0 0 0 0 0 0 0 0 0 0 0 0 0 0 0 0 0 0 0 0 0 0 0 0 0 0 0 0 0 0 0 0
0 0 0 0 0 0 0 0 0 0 0 0 0 0 0 0 0 0 0 0 0 0 0 0 0 0 0 0 0 0 0 0 0 0 0 0 0 0
0 0 0 0 0 0 0 0 0 0 0 0 0 0 0 0 0 0 0 0 0 0 0 0 0 0 0 0 0 0 0 0 0 0 0 0 0 0
0 0 0 0 0 0 0 0 0 0 0 0 0 0 0 0 -0 0 0 0 0 0 0 0 0 0 0 0 0 0 0 0 0 0 0 0 0 0
0 0 0 0 0 0 0 0 0 0 0 0 0 0 0 -0 0 0 0 0 0 0 0 0 0 0 0 0 0 0 0 0 0 0 0 0 0 0
0 0 0 0 0 0 0 0 0 0 0 0 0 0 0 0 0 0 0 0 0 0 0 0 0 0 0 0 0 0 0 0 0 0 0 0 0 -0
0 0 0 0 0 0 0 0 0 0 0 0 0 0 0 0 0 0 0 0 0 0 -0 0 0 0 0 0 0 0 0 0 0 0 0 -0 -0 -0
0 0 0 0 0 0 0 0 0 0 0 0 0 0 0 0 0 0 0 0 0 0 0 0 0 0 0 0 0 0 0 0 0 0 0 0 -0 -0
0 0 0 0 0 0 0 0 0 0 0 0 0 0 0 0 0 0 0 0 0 0 0 0 0 0 0 0 0 0 0 0 0 0 0 -0 -0 -0
Wind_Speed_500mb
9 1 3 1 10 10 7 12 22 25 32 33 36 35 37 41 39 39 39 44 55 51 46 47 47 48 50 48 56 61 64 69 71 70 67 62 60 61
13 17 10 8 12 21 19 4 17 27 32 39 41 41 38 36 31 36 47 58 60 61 57 47 45 45 47 48 47 48 55 60 71 75 77 76 70 65
11 11 9 6 9 11 9 10 15 23 31 36 38 38 42 30 36 47 50 53 57 55 49 46 48 52 58 57 52 50 51 52 57 73 78 82 82 78
5 4 2 3 6 11 10 14 21 26 28 41 43 37 34 34 41 51 50 49 53 55 53 48 52 49 51 51 58 60 57 52 54 56 69 78 83 85
3 2 5 8 10 16 19 21 24 30 31 36 42 41 38 34 38 41 48 48 49 54 52 54 50 42 40 46 50 53 53 38 40 45 47 57 69 84
7 9 11 16 15 17 20 22 29 35 35 42 43 44 39 34 40 47 49 45 51 50 51 58 55 45 39 35 33 36 35 37 34 34 36 39 45 56
15 13 15 18 19 14 20 26 31 33 37 42 44 45 38 38 44 46 44 51 54 49 55 51 56 52 36 26 14 13 16 27 33 33 33 36 37 44
21 20 21 22 22 24 30 33 36 41 43 44 47 41 37 43 45 41 42 49 60 51 62 51 52 53 54 42 27 26 33 34 32 38 43 42 47 48
27 24 24 25 28 28 30 33 37 40 45 49 49 46 44 41 38 38 43 50 57 53 58 63 56 53 56 55 44 32 30 29 41 44 44 47 49 56
34 31 31 32 30 33 39 47 49 48 51 53 53 53 51 47 43 45 51 54 56 53 52 59 54 57 59 57 41 40 27 29 32 36 43 42 42 43
40 37 35 33 33 38 56 63 58 58 56 55 57 60 59 56 49 53 52 55 56 58 56 55 58 63 65 57 57 55 42 35 29 32 40 49 50 46
43 40 33 37 39 40 41 42 51 54 59 61 63 67 68 68 58 46 49 50 49 61 60 58 55 61 62 58 64 59 53 48 46 44 48 46 47 51
33 33 33 32 39 48 51 54 59 63 66 66 68 73 76 73 68 53 46 52 56 63 57 54 56 60 58 60 70 66 58 59 58 53 59 45 39 41
36 36 37 38 45 51 49 53 57 59 65 74 78 82 81 73 61 48 50 59 63 61 54 48 53 55 49 52 66 73 65 59 56 62 68 54 47 54
41 41 45 50 57 67 69 71 69 77 80 80 82 83 80 78 80 67 58 65 70 63 53 49 51 43 42 46 60 72 71 68 44 60 63 58 60 63
43 43 51 55 61 68 73 80 86 87 86 85 86 88 88 92 90 82 73 71 75 73 62 55 55 54 59 56 58 67 65 63 61 70 63 60 65 64
49 52 57 64 74 80 86 80 72 77 76 65 49 52 58 59 66 71 72 77 88 86 83 65 60 60 62 62 61 63 59 56 70 65 65 66 78 74
64 65 68 62 83 77 71 71 60 55 49 48 57 61 48 76 71 71 61 68 81 67 72 71 71 70 70 72 62 61 51 59 73 60 62 66 89 82
92 87 82 74 73 76 83 63 60 64 70 48 50 55 55 43 48 57 49 58 67 76 66 62 61 60 55 68 66 51 57 65 68 64 59 70 81 86
76 67 66 75 69 72 46 66 65 62 62 57 55 50 44 44 43 42 44 51 53 50 50 47 52 44 46 47 55 71 62 63 67 68 61 69 73 80
54 55 63 55 53 50 53 54 50 40 42 36 26 26 22 24 27 27 29 33 35 41 47 49 43 44 53 58 67 69 80 82 62 51 47 58 73 82
37 47 37 46 47 42 40 34 43 37 21 15 23 25 35 36 34 32 31 32 32 35 35 37 36 34 37 41 53 58 54 46 32 39 43 47 60 77
24 33 46 46 46 43 35 40 27 12 14 20 29 25 21 25 31 33 34 31 31 35 33 34 38 38 40 42 42 38 38 34 42 44 43 46 56 61
Wind_Direction_500mb
168 119 249 288 120 102 45 5 343 338 331 321 320 312 310 309 313 310 310 316 319 321 316 312 304 292 283 282 271 267 261 257 254 255 256 253 250 247
232 234 261 331 295 282 260 302 318 313 310 310 319 323 323 330 323 316 318 319 317 317 318 310 298 291 286 283 282 276 271 265 259 255 254 255 254 251
95 82 60 36 18 350 332 338 311 327 316 322 324 326 326 326 320 317 321 324 328 326 323 316 309 297 289 283 275 274 268 270 267 257 253 252 253 252
145 81 51 213 327 339 327 343 345 340 334 331 330 331 324 318 314 315 321 326 333 339 338 328 316 306 302 288 273 270 276 283 284 278 263 252 250 251
164 179 257 287 306 299 307 326 338 330 330 327 325 329 327 324 319 323 325 328 340 345 341 340 333 319 311 306 295 275 271 277 282 276 273 266 258 251
253 266 295 307 294 293 303 315 323 324 327 328 327 324 329 336 335 335 334 342 344 350 348 355 345 332 327 315 319 297 275 266 283 289 281 277 278 264
261 263 286 294 286 286 299 305 310 310 319 328 328 322 329 338 339 336 335 342 342 356 346 4 355 358 355 346 1 6 333 289 282 285 296 294 282 286
286 274 281 292 289 271 290 285 297 298 306 309 320 325 332 340 339 329 331 334 328 349 340 347 352 350 351 342 321 316 326 316 305 297 295 289 289 282
288 282 284 289 290 281 288 293 293 301 304 305 310 320 320 333 327 321 322 317 318 334 332 335 349 350 357 354 340 317 301 300 294 287 290 295 290 286
292 287 288 288 286 290 287 284 286 293 299 300 299 311 314 321 316 307 305 305 310 320 334 322 337 336 343 359 353 345 321 309 297 297 289 284 290 288
289 286 280 279 286 296 297 284 283 286 297 299 297 299 306 308 312 299 301 299 301 313 325 324 329 323 324 340 352 355 339 321 316 331 312 278 272 279
285 283 278 269 287 300 303 304 295 295 295 295 295 294 300 301 297 285 294 291 298 305 314 314 324 325 315 325 337 345 349 355 344 333 341 327 276 271
286 289 284 279 282 290 295 299 300 302 302 299 297 297 300 301 301 284 277 282 292 298 302 306 315 320 313 316 325 338 337 342 342 342 341 339 335 288
287 292 294 296 290 290 294 293 294 298 298 301 301 301 299 299 303 285 269 275 284 289 295 296 305 311 310 313 317 326 329 329 328 333 338 334 332 341
286 291 296 295 292 292 289 288 289 294 297 297 298 298 299 297 297 290 264 265 278 277 282 287 297 294 304 303 314 318 322 323 320 326 329 334 336 335
299 293 301 300 297 299 300 301 300 299 300 300 300 301 300 297 292 289 271 271 266 275 274 273 278 285 289 296 299 310 313 316 320 324 330 328 333 332
287 290 293 297 301 304 306 308 310 305 297 293 296 313 314 306 294 292 286 274 273 271 270 273 274 274 286 289 290 306 308 307 320 323 325 321 330 333
286 287 291 306 307 290 308 295 296 298 282 284 296 312 299 313 307 291 302 286 270 270 271 273 281 275 286 283 282 297 292 300 321 325 320 312 320 328
290 290 294 292 300 296 303 292 297 302 288 299 322 317 321 310 305 297 290 277 269 265 263 269 268 269 284 275 285 284 290 299 313 312 313 308 313 323
297 302 292 295 299 307 290 305 307 304 300 304 311 311 313 300 294 295 291 289 279 281 288 281 280 276 277 280 283 288 288 294 306 306 308 303 310 319
296 300 293 297 300 296 299 301 300 305 309 308 311 314 314 326 328 326 318 316 309 309 300 296 293 287 281 279 282 283 281 286 294 299 299 304 318 321
282 285 296 308 309 307 300 303 313 313 306 294 302 308 315 315 313 307 308 308 309 306 308 310 312 309 298 290 288 294 299 297 291 300 300 303 317 317
316 311 316 312 309 302 294 312 309 290 289 307 310 314 312 315 321 324 334 316 295 300 308 314 314 318 312 303 306 305 313 311 319 322 311 308 312 312
Wind_Speed_850mb
9 1 3 1 10 10 7 12 22 25 32 33 36 35 37 41 39 39 39 44 55 51 46 47 47 48 50 48 56 61 64 69 71 70 67 62 60 61
13 17 10 8 12 21 19 4 17 27 32 39 41 41 38 36 31 36 47 58 60 61 57 47 45 45 47 48 47 48 55 60 71 75 77 76 70 65
11 11 9 6 9 11 9 10 15 23 31 36 38 38 42 30 36 47 50 53 57 55 49 46 48 52 58 57 52 50 51 52 57 73 78 82 82 78
5 4 2 3 6 11 10 14 21 26 28 41 43 37 34 34 41 51 50 49 53 55 53 48 52 49 51 51 58 60 57 52 54 56 69 78 83 85
3 2 5 8 10 16 19 21 24 30 31 36 42 41 38 34 38 41 48 48 49 54 52 54 50 42 40 46 50 53 53 38 40 45 47 57 69 84
7 9 11 16 15 17 20 22 29 35 35 42 43 44 39 34 40 47 49 45 51 50 51 58 55 45 39 35 33 36 35 37 34 34 36 39 45 56
15 13 15 18 19 14 20 26 31 33 37 42 44 45 38 38 44 46 44 51 54 49 55 51 56 52 36 26 14 13 16 27 33 33 33 36 37 44
21 20 21 22 22 24 30 33 36 41 43 44 47 41 37 43 45 41 42 49 60 51 62 51 52 53 54 42 27 26 33 34 32 38 43 42 47 48
27 24 24 25 28 28 30 33 37 40 45 49 49 46 44 41 38 38 43 50 57 53 58 63 56 53 56 55 44 32 30 29 41 44 44 47 49 56
34 31 31 32 30 33 39 47 49 48 51 53 53 53 51 47 43 45 51 54 56 53 52 59 54 57 59 57 41 40 27 29 32 36 43 42 42 43
40 37 35 33 33 38 56 63 58 58 56 55 57 60 59 56 49 53 52 55 56 58 56 55 58 63 65 57 57 55 42 35 29 32 40 49 50 46
43 40 33 37 39 40 41 42 51 54 59 61 63 67 68 68 58 46 49 50 49 61 60 58 55 61 62 58 64 59 53 48 46 44 48 46 47 51
33 33 33 32 39 48 51 54 59 63 66 66 68 73 76 73 68 53 46 52 56 63 57 54 56 60 58 60 70 66 58 59 58 53 59 45 39 41
36 36 37 38 45 51 49 53 57 59 65 74 78 82 81 73 61 48 50 59 63 61 54 48 53 55 49 52 66 73 65 59 56 62 68 54 47 54
41 41 45 50 57 67 69 71 69 77 80 80 82 83 80 78 80 67 58 65 70 63 53 49 51 43 42 46 60 72 71 68 44 60 63 58 60 63
43 43 51 55 61 68 73 80 86 87 86 85 86 88 88 92 90 82 73 71 75 73 62 55 55 54 59 56 58 67 65 63 61 70 63 60 65 64
49 52 57 64 74 80 86 80 72 77 76 65 49 52 58 59 66 71 72 77 88 86 83 65 60 60 62 62 61 63 59 56 70 65 65 66 78 74
64 65 68 62 83 77 71 71 60 55 49 48 57 61 48 76 71 71 61 68 81 67 72 71 71 70 70 72 62 61 51 59 73 60 62 66 89 82
92 87 82 74 73 76 83 63 60 64 70 48 50 55 55 43 48 57 49 58 67 76 66 62 61 60 55 68 66 51 57 65 68 64 59 70 81 86
76 67 66 75 69 72 46 66 65 62 62 57 55 50 44 44 43 42 44 51 53 50 50 47 52 44 46 47 55 71 62 63 67 68 61 69 73 80
54 55 63 55 53 50 53 54 50 40 42 36 26 26 22 24 27 27 29 33 35 41 47 49 43 44 53 58 67 69 80 82 62 51 47 58 73 82
37 47 37 46 47 42 40 34 43 37 21 15 23 25 35 36 34 32 31 32 32 35 35 37 36 34 37 41 53 58 54 46 32 39 43 47 60 77
24 33 46 46 46 43 35 40 27 12 14 20 29 25 21 25 31 33 34 31 31 35 33 34 38 38 40 42 42 38 38 34 42 44 43 46 56 61
Wind_Direction_850mb
168 119 249 288 120 102 45 5 343 338 331 321 320 312 310 309 313 310 310 316 319 321 316 312 304 292 283 282 271 267 261 257 254 255 256 253 250 247
232 234 261 331 295 282 260 302 318 313 310 310 319 323 323 330 323 316 318 319 317 317 318 310 298 291 286 283 282 276 271 265 259 255 254 255 254 251
95 82 60 36 18 350 332 338 311 327 316 322 324 326 326 326 320 317 321 324 328 326 323 316 309 297 289 283 275 274 268 270 267 257 253 252 253 252
145 81 51 213 327 339 327 343 345 340 334 331 330 331 324 318 314 315 321 326 333 339 338 328 316 306 302 288 273 270 276 283 284 278 263 252 250 251
164 179 257 287 306 299 307 326 338 330 330 327 325 329 327 324 319 323 325 328 340 345 341 340 333 319 311 306 295 275 271 277 282 276 273 266 258 251
253 266 295 307 294 293 303 315 323 324 327 328 327 324 329 336 335 335 334 342 344 350 348 355 345 332 327 315 319 297 275 266 283 289 281 277 278 264
261 263 286 294 286 286 299 305 310 310 319 328 328 322 329 338 339 336 335 342 342 356 346 4 355 358 355 346 1 6 333 289 282 285 296 294 282 286
286 274 281 292 289 271 290 285 297 298 306 309 320 325 332 340 339 329 331 334 328 349 340 347 352 350 351 342 321 316 326 316 305 297 295 289 289 282
288 282 284 289 290 281 288 293 293 301 304 305 310 320 320 333 327 321 322 317 318 334 332 335 349 350 357 354 340 317 301 300 294 287 290 295 290 286
292 287 288 288 286 290 287 284 286 293 299 300 299 311 314 321 316 307 305 305 310 320 334 322 337 336 343 359 353 345 321 309 297 297 289 284 290 288
289 286 280 279 286 296 297 284 283 286 297 299 297 299 306 308 312 299 301 299 301 313 325 324 329 323 324 340 352 355 339 321 316 331 312 278 272 279
285 283 278 269 287 300 303 304 295 295 295 295 295 294 300 301 297 285 294 291 298 305 314 314 324 325 315 325 337 345 349 355 344 333 341 327 276 271
286 289 284 279 282 290 295 299 300 302 302 299 297 297 300 301 301 284 277 282 292 298 302 306 315 320 313 316 325 338 337 342 342 342 341 339 335 288
287 292 294 296 290 290 294 293 294 298 298 301 301 301 299 299 303 285 269 275 284 289 295 296 305 311 310 313 317 326 329 329 328 333 338 334 332 341
286 291 296 295 292 292 289 288 289 294 297 297 298 298 299 297 297 290 264 265 278 277 282 287 297 294 304 303 314 318 322 323 320 326 329 334 336 335
299 293 301 300 297 299 300 301 300 299 300 300 300 301 300 297 292 289 271 271 266 275 274 273 278 285 289 296 299 310 313 316 320 324 330 328 333 332
287 290 293 297 301 304 306 308 310 305 297 293 296 313 314 306 294 292 286 274 273 271 270 273 274 274 286 289 290 306 308 307 320 323 325 321 330 333
286 287 291 306 307 290 308 295 296 298 282 284 296 312 299 313 307 291 302 286 270 270 271 273 281 275 286 283 282 297 292 300 321 325 320 312 320 328
290 290 294 292 300 296 303 292 297 302 288 299 322 317 321 310 305 297 290 277 269 265 263 269 268 269 284 275 285 284 290 299 313 312 313 308 313 323
297 302 292 295 299 307 290 305 307 304 300 304 311 311 313 300 294 295 291 289 279 281 288 281 280 276 277 280 283 288 288 294 306 306 308 303 310 319
296 300 293 297 300 296 299 301 300 305 309 308 311 314 314 326 328 326 318 316 309 309 300 296 293 287 281 279 282 283 281 286 294 299 299 304 318 321
282 285 296 308 309 307 300 303 313 313 306 294 302 308 315 315 313 307 308 308 309 306 308 310 312 309 298 290 288 294 299 297 291 300 300 303 317 317
316 311 316 312 309 302 294 312 309 290 289 307 310 314 312 315 321 324 334 316 295 300 308 314 314 318 312 303 306 305 313 311 319 322 311 308 312 312